User: anonymous   Login
Location: Unspecified
(0.0000°N, 0.0000°E)
Time: 10:59:10
(UTC+00:00)
Language:

STARLINK-31447 - Orbit

View from above orbital plane
View from above orbital plane
View from above satellite
View from above satellite

Ground track
Ground track

The orbit is defined by the following mean orbital elements,

1 59302U          26145.38425718 +.00000000 +00000-0 +64505-5 0 00003
2 59302  43.0009 157.5882 0001269 273.0851  86.9856 15.27575945    09
Epoch (UTC): 25 May 2026 09:13:19
Eccentricity: 0.0001269
inclination: 43.0009°
perigee height: 482 km
apogee height: 484 km
right ascension of ascending node: 157.5882°
argument of perigee: 273.0851°
revolutions per day: 15.27575945
mean anomaly at epoch: 86.9856°

The dashed part of the orbit path shows where the satellite is in the earth's shadow,  

DLR